TimeCDT,TemperatureF,Dew PointF,Humidity,Sea Level PressureIn,VisibilityMPH,Wind Direction,Wind SpeedMPH,Gust SpeedMPH,PrecipitationIn,Events,Conditions,WindDirDegrees,DateUTC
12:23 AM,62.6,62.6,100,29.79,5.0,SSE,13.8,-,0.17,Rain,Rain,150,2013-05-21 05:23:00
12:37 AM,62.6,62.6,100,29.75,7.0,SSE,25.3,32.2,0.21,Rain-Thunderstorm,Rain,160,2013-05-21 05:37:00
12:52 AM,63.0,63.0,100,29.72,3.0,South,16.1,-,0.23,Rain,Light Rain,170,2013-05-21 05:52:00
1:52 AM,64.0,64.0,100,29.72,10.0,South,12.7,-,0.00,,Clear,180,2013-05-21 06:52:00
2:52 AM,64.0,64.0,100,29.73,10.0,South,11.5,-,N/A,,Scattered Clouds,180,2013-05-21 07:52:00
3:52 AM,66.0,64.0,93,29.75,10.0,South,18.4,25.3,N/A,,Overcast,180,2013-05-21 08:52:00
4:52 AM,64.9,62.1,90,29.72,10.0,South,12.7,-,N/A,,Scattered Clouds,190,2013-05-21 09:52:00
5:52 AM,64.9,61.0,87,29.72,10.0,South,13.8,-,N/A,,Partly Cloudy,180,2013-05-21 10:52:00
6:52 AM,66.0,61.0,84,29.73,10.0,SSW,11.5,19.6,N/A,,Clear,200,2013-05-21 11:52:00
7:52 AM,68.0,62.1,81,29.75,10.0,SSW,15.0,-,N/A,,Scattered Clouds,200,2013-05-21 12:52:00
8:52 AM,69.1,62.1,78,29.76,10.0,SSW,16.1,-,N/A,,Clear,200,2013-05-21 13:52:00
9:52 AM,72.0,64.0,76,29.75,10.0,SSW,15.0,-,N/A,,Clear,200,2013-05-21 14:52:00
10:52 AM,75.0,66.0,73,29.76,10.0,SSW,16.1,23.0,N/A,,Partly Cloudy,200,2013-05-21 15:52:00
11:52 AM,75.0,66.0,73,29.75,10.0,SW,11.5,-,N/A,,Clear,220,2013-05-21 16:52:00
12:30 PM,77.0,66.2,69,29.76,10.0,SSW,11.5,20.7,N/A,,Mostly Cloudy,210,2013-05-21 17:30:00
12:52 PM,77.0,66.9,71,29.75,10.0,SW,11.5,-,N/A,,Mostly Cloudy,220,2013-05-21 17:52:00
1:52 PM,78.1,66.9,68,29.74,10.0,SSW,13.8,21.9,N/A,,Scattered Clouds,210,2013-05-21 18:52:00
2:52 PM,80.1,66.0,62,29.73,10.0,SSW,16.1,26.5,N/A,,Partly Cloudy,200,2013-05-21 19:52:00
3:52 PM,80.1,66.0,62,29.72,10.0,SSW,15.0,21.9,N/A,,Scattered Clouds,210,2013-05-21 20:52:00
4:52 PM,79.0,64.0,60,29.70,10.0,SSW,15.0,23.0,N/A,,Partly Cloudy,210,2013-05-21 21:52:00
5:52 PM,78.1,63.0,60,29.67,10.0,SSW,8.1,-,N/A,,Clear,210,2013-05-21 22:52:00
6:52 PM,78.1,63.0,60,29.69,10.0,SSW,12.7,-,N/A,,Scattered Clouds,200,2013-05-21 23:52:00
7:52 PM,73.9,62.1,66,29.70,10.0,SSW,10.4,-,N/A,,Clear,210,2013-05-22 00:52:00
8:52 PM,72.0,63.0,73,29.71,10.0,SW,4.6,-,N/A,,Clear,220,2013-05-22 01:52:00
9:52 PM,70.0,63.0,78,29.69,10.0,South,6.9,-,N/A,,Scattered Clouds,180,2013-05-22 02:52:00
10:52 PM,69.1,63.0,81,29.69,10.0,South,6.9,-,N/A,,Overcast,180,2013-05-22 03:52:00
11:52 PM,69.1,64.0,84,29.70,10.0,South,9.2,-,N/A,,Overcast,190,2013-05-22 04:52:00